Temperature
34 34 33 34 35 35 35 35 34 35 36 35 34 34 34 34 33 32 31 30 29 27 26 25 24 23 22 22 21 21 20 20 20 20 20 19 19 19 19 19 19 19 18 18
34 33 35 35 35 35 35 34 34 35 36 35 34 34 34 34 34 33 32 30 29 28 27 25 25 24 23 22 21 21 21 20 20 20 20 20 19 19 19 19 19 19 18 18
33 34 35 35 35 34 34 34 34 35 35 35 34 33 33 34 34 33 32 31 30 29 27 26 25 24 23 22 21 21 21 20 20 20 20 19 19 19 19 19 19 19 18 18
34 35 35 34 34 35 34 35 35 35 34 33 34 31 31 33 33 34 33 32 31 29 28 26 25 24 23 22 22 21 21 20 20 20 20 19 19 19 19 19 19 19 18 18
33 34 34 34 34 35 35 36 35 35 34 33 34 32 32 33 33 33 33 32 31 30 28 27 25 24 24 23 22 21 21 20 20 20 20 19 19 19 19 19 19 19 19 18
34 35 35 35 35 35 35 35 34 34 34 32 33 32 31 31 33 34 34 33 31 30 29 27 26 25 24 23 22 21 21 21 20 20 20 20 19 19 19 19 19 19 19 18
32 34 35 35 34 35 34 33 32 32 32 31 33 33 32 33 34 34 34 33 31 30 29 27 26 25 24 23 22 21 21 21 20 20 20 20 20 19 19 19 19 19 18 18
31 32 34 34 34 34 34 33 31 30 31 31 32 32 33 35 35 34 34 33 32 30 29 28 26 25 24 23 22 22 21 21 21 20 20 20 20 20 19 19 19 19 19 18
32 32 35 35 35 34 33 33 34 33 32 31 31 32 33 34 34 34 33 32 32 31 30 28 27 25 24 24 23 22 21 21 21 21 21 20 20 20 19 19 19 19 19 18
33 32 34 35 35 34 34 34 33 32 31 31 31 32 32 32 33 33 33 32 31 31 30 28 27 26 25 24 23 22 22 21 21 21 21 20 20 20 20 19 19 19 19 19
33 31 32 33 33 33 33 33 32 32 32 31 30 30 33 32 32 33 33 32 31 30 30 29 27 26 25 24 23 22 22 21 21 21 21 20 20 20 20 20 20 19 19 19
32 31 31 32 34 34 34 33 33 31 31 31 31 30 33 33 34 34 33 32 31 30 30 29 27 26 25 25 23 22 22 21 21 21 21 21 20 20 20 19 19 19 19 19
30 30 29 30 32 33 33 33 33 33 32 31 31 31 33 33 33 33 33 32 31 30 29 28 27 26 26 25 24 23 22 21 21 21 21 21 20 20 20 19 19 19 19 18
29 29 29 29 30 32 32 32 33 32 32 31 31 31 32 32 33 33 32 31 30 30 29 28 26 26 25 25 24 23 22 22 21 21 21 20 20 20 20 19 19 19 19 18
30 29 29 30 31 32 32 32 32 32 32 31 32 31 31 32 32 32 31 30 30 29 28 27 26 25 25 24 24 23 22 22 21 21 21 20 20 20 20 19 19 19 19 18
29 28 28 29 31 31 31 32 32 32 32 32 32 32 32 32 31 31 30 30 29 28 28 27 26 25 24 24 23 23 22 22 21 21 21 20 20 20 20 19 19 19 19 18
27 26 26 27 29 30 30 31 32 32 33 32 32 32 32 31 31 30 29 29 28 28 27 26 26 25 24 24 23 23 22 22 21 21 21 20 20 20 20 19 19 19 18 18
26 25 26 27 27 27 30 32 32 32 32 32 32 32 31 30 29 28 28 27 27 27 26 26 25 24 24 23 23 23 22 22 21 21 20 20 20 20 19 19 19 18 18 18
27 25 25 26 26 27 29 31 31 31 30 32 31 31 30 29 28 27 26 26 26 26 25 25 25 24 24 23 23 22 22 21 21 20 20 20 20 19 19 19 19 18 18 18
27 26 25 25 25 26 28 30 30 30 29 30 30 29 29 29 28 26 25 25 25 24 24 24 24 23 23 23 22 22 21 21 20 20 20 20 19 19 19 19 19 18 18 17
25 25 25 25 25 26 28 29 30 28 26 28 28 27 27 26 26 24 24 24 23 23 23 23 23 22 22 22 22 22 21 20 20 20 19 19 19 19 19 18 18 18 17 17
25 25 24 25 24 25 27 27 26 25 25 26 26 25 24 24 24 23 23 22 22 22 22 22 22 21 21 21 21 21 20 20 20 19 19 19 19 18 18 18 17 17 17 17
25 24 24 24 24 24 24 24 24 24 24 24 24 24 23 23 23 22 22 21 21 21 20 20 21 20 20 20 20 20 20 19 19 19 19 18 18 18 18 17 17 17 16 16
24 24 24 23 23 23 23 23 23 23 22 22 22 22 22 22 22 21 20 20 20 20 19 19 19 19 19 19 19 19 19 19 19 18 18 18 17 17 17 17 16 16 16 15
21 22 22 21 21 21 22 22 21 21 21 22 21 21 21 21 20 20 19 19 19 19 18 18 18 18 18 18 18 18 18 18 18 18 17 17 17 17 16 16 16 16 16 15
20 20 20 20 20 20 19 20 20 20 20 20 20 20 20 20 19 19 19 18 18 18 18 18 18 18 17 17 17 17 17 17 17 17 17 16 16 16 16 16 15 15 15 15
Wind_Speed
12 12 13 12 10 8 7 7 3 1 2 3 2 4 8 8 9 10 11 11 13 13 13 12 12 12 13 11 10 9 8 8 6 4 4 3 3 3 3 3 6 6 6 6
12 15 14 10 8 7 8 9 6 3 3 3 2 2 5 7 9 9 11 12 13 13 13 12 12 11 12 12 10 10 9 8 7 5 4 3 3 3 4 2 5 7 6 6
15 11 10 11 11 10 10 8 7 5 4 5 5 3 3 5 7 9 10 11 13 15 15 14 12 11 11 12 12 10 9 9 8 6 5 3 2 1 2 3 3 4 6 6
13 12 9 11 12 12 10 7 8 7 7 7 8 4 5 7 8 10 10 11 12 13 14 14 13 12 12 12 12 9 9 9 8 7 6 6 5 4 3 3 3 4 4 4
12 12 11 12 12 10 9 8 8 10 10 10 8 4 4 6 8 9 10 11 11 13 14 14 14 12 11 11 11 10 9 8 8 7 6 5 4 3 3 3 4 4 3 3
14 12 11 12 11 10 9 9 10 11 11 10 10 6 2 3 5 6 9 10 11 11 12 13 13 12 10 11 11 11 10 8 8 7 7 6 5 3 2 2 3 3 3 3
15 14 12 10 12 11 11 10 8 9 9 8 7 5 4 6 4 6 8 10 11 11 12 12 13 12 11 11 11 11 11 9 8 8 7 6 6 5 5 4 4 4 3 3
15 14 15 13 14 11 13 13 11 9 7 3 5 5 5 8 7 6 8 9 10 12 12 13 13 12 11 11 11 11 11 9 9 8 7 6 6 5 4 4 3 3 3 3
13 14 15 15 14 14 14 13 14 14 13 8 6 4 5 9 9 8 8 9 9 10 12 12 13 13 12 11 11 11 10 10 9 8 7 6 5 4 3 3 4 3 3 3
14 12 12 13 12 14 15 13 10 11 9 9 7 6 3 9 8 9 8 9 10 10 11 12 12 12 12 12 11 11 11 10 9 8 7 7 6 5 4 3 3 2 2 2
14 13 14 12 14 15 15 15 12 9 10 10 7 3 4 6 7 7 8 9 9 9 11 12 11 12 12 12 13 11 10 10 9 9 7 6 7 6 5 4 4 3 3 2
10 11 14 15 13 14 15 16 14 10 9 9 8 4 2 4 7 6 7 8 9 9 10 12 12 11 11 12 13 12 11 11 10 9 8 6 6 6 6 5 4 4 3 3
6 8 12 15 14 14 15 15 15 14 11 11 11 5 4 3 4 5 6 6 6 7 8 10 10 10 10 10 11 11 11 10 10 10 9 7 7 6 5 4 4 4 3 3
6 9 13 16 12 11 14 17 17 16 13 12 12 8 5 4 4 4 5 5 6 6 7 8 7 7 8 8 9 9 9 9 9 9 9 8 7 6 5 5 4 4 3 3
8 12 16 19 19 17 15 15 17 18 16 15 12 9 6 3 2 4 5 5 5 6 8 9 8 7 7 8 8 8 8 9 8 8 8 8 7 6 6 5 5 4 4 4
7 10 14 17 20 20 18 16 16 17 15 16 15 10 4 5 4 4 3 4 4 5 6 8 8 8 8 7 7 7 7 8 7 8 8 7 7 7 6 6 5 5 4 3
7 7 12 15 17 19 20 17 17 15 15 15 13 7 4 4 4 5 3 3 3 3 4 6 6 7 7 7 6 6 6 7 7 7 7 8 8 7 7 7 6 6 4 3
10 9 8 14 15 20 17 15 16 15 13 12 7 3 2 4 6 6 5 3 2 2 1 4 5 5 6 7 7 6 7 7 7 7 7 7 7 7 7 6 6 5 4 4
14 10 11 13 17 18 16 13 14 12 9 8 4 3 3 5 7 6 5 3 3 3 2 1 3 4 4 4 5 7 7 6 6 6 6 6 7 7 7 6 6 5 4 4
16 11 12 14 16 17 12 11 11 9 8 3 0 1 2 4 2 4 4 5 5 6 4 3 2 3 3 3 3 6 7 7 6 6 6 6 6 6 7 6 6 5 4 4
15 15 17 18 18 14 8 9 10 9 3 3 2 2 3 5 5 6 7 7 6 5 4 4 4 4 3 3 3 4 5 5 4 4 4 5 6 5 5 5 5 5 5 5
13 14 15 16 18 11 6 5 3 2 4 5 6 6 8 8 7 7 7 7 7 6 6 6 5 5 4 3 3 3 3 3 3 3 3 3 3 4 5 5 4 4 5 5
10 8 6 5 5 2 5 5 5 5 6 7 6 7 7 7 7 7 7 7 7 6 6 6 5 5 4 4 3 3 2 3 3 3 4 4 3 2 4 5 5 4 4 4
5 3 4 3 1 2 3 4 6 7 7 7 7 7 7 6 7 7 6 6 6 6 6 5 5 4 4 4 3 2 2 2 3 3 4 4 4 4 4 3 3 4 4 4
9 6 5 3 2 4 3 3 4 5 6 6 6 6 6 6 6 5 5 5 4 5 5 4 4 3 3 3 3 2 2 2 2 2 2 3 4 5 4 3 2 2 1 1
6 6 5 3 3 3 1 4 3 3 4 4 5 5 6 5 5 4 4 3 3 3 4 4 4 4 4 3 3 3 3 2 2 2 2 2 3 4 4 4 3 6 4 5
Wind_Direction
237 239 246 247 249 262 286 287 260 199 237 254 223 177 170 175 173 162 164 166 168 170 168 164 167 166 162 160 161 166 172 166 173 175 180 185 182 192 185 181 166 177 198 192
243 237 247 257 264 261 261 275 268 227 208 262 270 252 192 178 176 169 169 170 172 170 166 165 169 171 167 164 167 170 175 173 181 180 179 189 187 204 185 181 165 185 195 196
239 243 232 245 250 252 254 263 281 287 298 265 251 240 252 201 180 166 172 173 172 171 168 170 174 174 173 170 174 178 177 178 185 177 179 189 176 235 189 174 174 195 199 202
241 241 239 240 245 253 258 259 271 278 275 275 260 249 219 207 188 175 172 170 170 165 166 170 174 176 177 174 173 170 174 179 180 184 194 193 195 203 196 182 174 193 203 201
240 232 234 240 244 251 265 283 277 275 270 271 274 265 213 209 190 176 169 166 163 164 167 170 172 174 175 173 170 169 170 174 178 189 198 204 209 207 196 177 173 187 200 217
255 247 233 237 244 249 263 267 266 263 263 255 258 256 216 217 177 166 156 151 152 157 159 161 164 165 169 169 168 166 166 173 178 189 198 199 207 212 207 189 178 194 202 215
241 245 238 238 242 231 239 249 253 249 243 250 251 240 186 164 141 141 145 145 149 152 154 156 160 164 168 169 168 164 165 174 181 188 197 196 204 209 209 214 199 205 210 208
226 229 225 222 235 239 230 240 249 261 267 260 246 234 152 130 119 125 134 139 147 156 158 161 163 164 169 170 167 165 166 173 179 185 190 193 201 214 206 203 207 205 215 203
245 236 218 211 222 240 244 242 254 264 266 264 242 230 152 146 143 145 143 144 152 156 156 160 161 164 168 170 166 166 164 172 180 185 184 190 197 207 205 196 205 203 203 203
260 271 244 206 212 231 249 258 261 262 272 272 249 242 207 144 149 151 152 153 151 153 158 156 159 164 168 168 163 165 167 173 176 177 182 185 188 193 199 202 195 202 210 224
249 260 259 233 213 225 226 241 257 273 272 272 267 288 116 138 157 162 159 150 152 167 164 158 161 162 166 166 165 167 166 169 174 177 180 179 175 185 185 192 198 200 216 207
244 252 257 252 235 227 237 234 235 245 260 273 269 249 160 148 153 151 150 148 154 167 164 158 158 162 168 168 166 167 172 175 176 175 174 177 174 178 185 189 189 194 203 211
280 253 250 251 245 228 232 238 240 244 249 256 261 234 178 149 129 139 139 137 141 153 150 147 155 163 168 165 163 169 174 174 177 175 174 176 179 181 185 187 180 184 193 196
290 256 254 251 249 245 234 236 239 243 247 246 247 231 204 168 156 137 130 134 147 150 137 136 145 156 157 155 156 164 171 169 173 173 176 175 180 181 180 182 177 176 182 184
262 255 255 264 269 265 251 243 236 236 243 253 257 242 192 168 161 128 131 136 147 153 147 145 156 153 151 152 159 168 170 169 170 170 174 175 176 173 174 178 170 167 181 185
250 265 268 262 263 265 260 254 250 244 243 247 251 254 188 164 139 124 124 149 147 146 156 156 155 155 158 159 167 172 170 166 163 169 175 171 172 172 172 170 164 167 175 171
250 257 266 263 259 262 256 251 252 251 248 249 251 248 193 158 130 115 106 104 114 143 156 156 160 164 164 169 170 172 167 166 169 172 173 172 173 171 168 174 169 171 172 168
260 266 262 262 264 254 255 260 259 257 255 252 244 201 161 114 99 86 71 64 93 100 125 157 169 169 171 175 178 173 171 170 172 175 175 172 171 170 167 168 164 161 161 164
240 241 251 255 253 252 257 261 264 257 255 264 246 197 160 115 110 92 67 54 54 65 58 96 159 166 163 171 173 168 169 165 169 176 178 172 172 169 168 171 165 159 159 162
229 225 236 248 253 253 252 266 274 263 245 272 311 112 132 139 176 110 80 60 46 41 44 60 90 111 125 137 153 162 166 167 176 179 176 169 167 172 173 170 165 162 163 168
220 220 227 240 249 256 277 286 279 252 253 29 61 62 69 60 66 79 70 65 58 54 43 61 74 75 76 95 124 144 152 162 162 157 159 165 167 172 167 163 162 159 166 166
233 230 227 234 244 247 338 309 304 33 42 50 65 61 63 71 77 80 71 63 55 49 50 54 62 65 59 68 95 124 132 131 136 143 141 145 160 176 168 158 160 167 170 170
249 252 254 248 255 37 27 44 36 49 58 56 66 69 70 71 73 70 63 59 53 48 48 51 59 66 58 62 77 109 119 126 142 154 154 156 156 156 147 154 163 170 177 188
266 289 268 277 281 19 28 50 37 40 56 64 55 55 54 55 62 63 57 56 55 48 44 52 54 56 53 50 51 72 95 118 143 157 158 162 159 144 137 145 163 171 187 205
311 310 297 275 311 4 1 40 57 40 50 64 65 58 52 55 56 57 61 58 56 51 40 41 49 51 44 38 42 45 72 107 126 148 157 169 162 147 140 133 106 157 145 190
305 312 301 285 321 313 352 359 33 45 40 46 52 54 50 47 45 47 56 55 53 56 47 39 32 33 29 26 31 34 43 71 104 139 156 174 164 156 156 149 122 63 81 74
Height
1488 1490 1489 1483 1478 1479 1481 1483 1486 1480 1474 1477 1482 1485 1485 1488 1491 1496 1501 1507 1512 1516 1521 1524 1527 1530 1531 1533 1535 1537 1539 1540 1542 1544 1545 1547 1548 1550 1551 1552 1553 1554 1555 1556
1487 1488 1481 1476 1476 1478 1480 1485 1483 1478 1472 1477 1482 1484 1482 1485 1488 1492 1497 1503 1508 1513 1518 1522 1525 1528 1530 1531 1533 1535 1537 1539 1541 1543 1544 1546 1548 1549 1550 1551 1552 1553 1554 1555
1488 1481 1476 1477 1479 1482 1481 1484 1483 1482 1476 1476 1483 1491 1487 1484 1486 1490 1494 1499 1504 1509 1515 1519 1523 1526 1528 1530 1531 1534 1535 1537 1539 1541 1543 1545 1547 1548 1549 1550 1551 1552 1553 1554
1481 1476 1477 1479 1480 1480 1485 1475 1476 1479 1486 1490 1485 1506 1495 1486 1485 1486 1490 1495 1500 1506 1512 1516 1520 1523 1526 1528 1530 1532 1534 1535 1537 1540 1542 1543 1545 1546 1548 1549 1549 1551 1552 1552
1480 1475 1478 1481 1479 1477 1479 1473 1476 1478 1484 1490 1485 1498 1498 1484 1486 1484 1487 1492 1497 1503 1509 1514 1518 1521 1524 1527 1529 1530 1532 1534 1535 1537 1539 1541 1543 1545 1546 1547 1548 1549 1550 1550
1476 1472 1473 1475 1474 1475 1475 1477 1479 1480 1484 1503 1491 1496 1504 1490 1484 1482 1484 1490 1496 1501 1507 1512 1516 1519 1523 1525 1527 1529 1530 1532 1534 1536 1537 1539 1541 1542 1544 1546 1546 1547 1548 1549
1483 1475 1472 1473 1477 1476 1478 1490 1504 1507 1506 1504 1484 1490 1494 1479 1476 1479 1483 1488 1495 1500 1505 1510 1514 1518 1521 1523 1526 1527 1528 1530 1532 1534 1535 1537 1539 1541 1542 1543 1544 1546 1546 1547
1489 1488 1473 1472 1476 1479 1479 1485 1506 1518 1514 1504 1493 1492 1481 1471 1474 1478 1483 1488 1494 1499 1503 1508 1512 1516 1519 1521 1524 1525 1527 1528 1530 1532 1534 1535 1537 1539 1540 1541 1542 1543 1544 1545
1480 1481 1464 1466 1469 1474 1480 1481 1476 1488 1493 1504 1500 1484 1475 1470 1474 1478 1483 1488 1492 1497 1502 1506 1510 1514 1517 1520 1522 1524 1525 1527 1528 1530 1532 1534 1535 1537 1538 1540 1541 1542 1542 1543
1472 1481 1466 1463 1468 1471 1474 1474 1480 1490 1506 1512 1501 1492 1487 1479 1478 1478 1482 1487 1491 1496 1500 1505 1509 1512 1515 1518 1520 1522 1523 1525 1527 1528 1530 1532 1533 1535 1536 1538 1539 1539 1540 1541
1470 1480 1475 1467 1473 1477 1477 1480 1482 1484 1487 1504 1514 1505 1475 1477 1477 1477 1480 1485 1490 1494 1498 1502 1507 1510 1513 1516 1518 1520 1522 1523 1525 1527 1529 1531 1532 1534 1535 1535 1536 1537 1538 1539
1471 1477 1482 1472 1462 1463 1468 1473 1479 1495 1496 1491 1500 1501 1473 1473 1473 1476 1479 1484 1488 1492 1495 1500 1504 1508 1512 1514 1516 1518 1520 1522 1524 1525 1527 1529 1530 1532 1533 1534 1534 1535 1536 1536
1475 1481 1493 1489 1477 1466 1468 1468 1470 1475 1483 1491 1498 1496 1471 1473 1474 1477 1480 1483 1487 1491 1495 1498 1502 1506 1510 1512 1514 1517 1519 1520 1522 1523 1525 1527 1528 1529 1531 1532 1533 1533 1534 1534
1479 1482 1488 1492 1482 1470 1472 1470 1468 1474 1484 1489 1488 1486 1476 1475 1476 1478 1481 1484 1487 1491 1494 1498 1502 1505 1508 1510 1512 1515 1517 1519 1520 1522 1524 1525 1526 1527 1529 1530 1531 1532 1532 1533
1479 1484 1482 1476 1469 1466 1467 1468 1467 1472 1474 1481 1479 1478 1475 1475 1476 1478 1482 1484 1487 1490 1493 1495 1500 1503 1506 1508 1511 1513 1515 1517 1519 1520 1522 1524 1524 1526 1527 1528 1529 1530 1530 1531
1480 1485 1483 1481 1471 1466 1467 1464 1465 1466 1466 1469 1472 1474 1469 1473 1476 1480 1482 1485 1487 1490 1493 1495 1497 1501 1504 1507 1509 1511 1513 1515 1517 1518 1520 1522 1523 1524 1525 1526 1527 1528 1528 1529
1483 1488 1491 1488 1475 1472 1476 1466 1464 1463 1461 1464 1471 1470 1469 1472 1475 1479 1483 1485 1487 1490 1493 1495 1497 1500 1502 1505 1507 1509 1511 1513 1515 1516 1518 1520 1521 1522 1523 1524 1525 1526 1527 1527
1487 1490 1491 1489 1486 1495 1472 1456 1456 1458 1459 1459 1462 1465 1469 1473 1477 1481 1483 1486 1488 1490 1492 1494 1496 1499 1501 1503 1505 1507 1509 1511 1513 1515 1516 1518 1519 1520 1521 1522 1523 1524 1525 1525
1481 1487 1491 1490 1490 1482 1467 1459 1459 1462 1464 1460 1462 1465 1469 1474 1478 1483 1485 1487 1488 1489 1491 1493 1495 1497 1499 1501 1503 1505 1507 1509 1511 1513 1514 1515 1517 1518 1518 1519 1520 1521 1522 1523
1476 1480 1489 1489 1493 1490 1471 1460 1458 1460 1469 1463 1465 1467 1470 1474 1479 1486 1486 1487 1488 1490 1491 1492 1494 1495 1497 1498 1500 1503 1505 1507 1508 1510 1511 1512 1514 1515 1515 1516 1517 1518 1519 1520
1478 1480 1485 1487 1487 1477 1465 1461 1460 1474 1477 1468 1468 1470 1473 1477 1481 1485 1487 1488 1489 1491 1492 1492 1493 1494 1495 1496 1498 1500 1502 1504 1505 1507 1508 1510 1511 1512 1513 1514 1515 1516 1517 1518
1475 1478 1479 1480 1485 1482 1469 1466 1470 1474 1472 1472 1472 1475 1477 1479 1483 1486 1488 1489 1491 1492 1492 1492 1492 1493 1494 1495 1496 1499 1500 1502 1504 1505 1506 1507 1508 1510 1511 1512 1513 1514 1515 1516
1469 1471 1471 1475 1479 1475 1473 1473 1474 1473 1474 1475 1476 1478 1481 1482 1485 1487 1488 1489 1490 1491 1492 1492 1492 1493 1494 1495 1496 1497 1499 1500 1502 1503 1503 1504 1506 1507 1508 1509 1510 1511 1513 1514
1469 1469 1471 1476 1475 1475 1476 1476 1476 1477 1477 1478 1480 1481 1483 1485 1487 1488 1490 1491 1492 1492 1493 1493 1493 1493 1493 1494 1495 1496 1497 1498 1499 1501 1501 1503 1503 1504 1505 1507 1508 1509 1511 1512
1477 1473 1474 1477 1477 1477 1478 1479 1479 1479 1479 1481 1483 1484 1486 1487 1488 1489 1491 1492 1493 1493 1493 1493 1493 1493 1493 1494 1494 1495 1495 1496 1497 1498 1500 1501 1502 1502 1503 1504 1505 1506 1508 1508
1481 1481 1481 1482 1482 1482 1482 1482 1482 1482 1483 1484 1485 1486 1488 1489 1489 1490 1491 1492 1493 1493 1493 1493 1492 1492 1493 1493 1493 1493 1493 1494 1495 1496 1498 1499 1499 1500 1501 1502 1502 1503 1505 1505